Regional Weather Roundup
Issued by NWS Northern Indiana

Home | Current Version | Previous Version | Text Only | Print | Product List | Glossary Off
Versions: 1 2 3 4 5 6 7 8 9 10 11 12 13 14 15 16 17 18 19 20 21 22 23 24 25 26 27 28 29 30 31 32 33 34 35 36 37 38 39 40 41 42 43 44 45 46 47 48 49 50

084
ASUS43 KIWX 241800
RWRIWX

KIWX WEATHER ROUNDUP
NATIONAL WEATHER SERVICE NORTHERN INDIANA
100 PM EST FRI FEB 24 2017

NOTE: "FAIR" INDICATES FEW OR NO CLOUDS BELOW 12,000 FEET WITH NO
SIGNIFICANT WEATHER AND/OR OBSTRUCTIONS TO VISIBILITY.

* THESE STATIONS ARE NOT UNDER NWS QUALITY CONTROL. THEY ALSO MAY NOT
  REPORT WEATHER SUCH AS PRECIPITATION OR FOG.

INZ001>027-241900-
NORTHERN INDIANA

CITY           SKY/WX    TMP DP  RH WIND       PRES   REMARKS
GARY*          FOG       41  39  93 N9        29.47S VSB 1
MICHIGAN CITY* CLOUDY    50  50 100 W3        29.45F
KNOX*          CLOUDY    64  36  34 SW15G25   29.45S
SOUTH BEND     CLOUDY    63  56  78 SW14      29.46F
6HR MIN TEMP:  52; 6HR MAX TEMP:  63; 6HR PCP:  0.05;

ELKHART*       CLOUDY    64  55  72 S10G17    29.46F
GOSHEN         CLOUDY    65  54  67 S16       29.46F
6HR MIN TEMP:  52; 6HR MAX TEMP:  65; 6HR PCP: TRACE;

ANGOLA*        CLOUDY    64  57  77 SW9       29.48F
FORT WAYNE     CLOUDY    69  55  60 S21G30    29.49F
6HR MIN TEMP:  52; 6HR MAX TEMP:  69;


$$
INZ028>050-241900-
CENTRAL INDIANA

CITY           SKY/WX    TMP DP  RH WIND       PRES   REMARKS
LAFAYETTE      CLOUDY    66  56  70 SW13G29   29.48S
6HR MIN TEMP:  60; 6HR MAX TEMP:  67; 6HR PCP: TRACE;

KOKOMO*        CLOUDY    68  55  63 SW24G33   29.51F
MUNCIE*        CLOUDY    72  54  53 S25G35    29.51F
6HR MIN TEMP:  60; 6HR MAX TEMP:  73;

INDIANAPOLIS   PTSUNNY   74  52  46 SW26G40   29.53F
6HR MIN TEMP:  59; 6HR MAX TEMP:  74;


$$
MIZ043>046-050>051-056>058-064>065-071>073-077>080-241900-
SOUTHWEST LOWER MICHIGAN

CITY           SKY/WX    TMP DP  RH WIND       PRES   REMARKS
BATTLE CREEK   CLOUDY    50  49  96 NE6       29.48F FOG
6HR MIN TEMP:  40; 6HR MAX TEMP:  51; 6HR PCP:  0.03;

BENTON HARBOR  CLOUDY    56  53  90 E3        29.44F FOG
6HR MIN TEMP:  51; 6HR MAX TEMP:  59; 6HR PCP:  0.06;

COLDWATER*     CLOUDY    64  56  77 S8        29.48F
6HR MIN TEMP:  46; 6HR MAX TEMP:  67;

HILLSDALE*     CLOUDY    63  55  77 S9G18     29.52R
HOLLAND        CLOUDY    40  38  93 E8        29.48F FOG
6HR MIN TEMP:  38; 6HR MAX TEMP:  40; 6HR PCP:  0.32;

GRAND RAPIDS   LGT RAIN  38  36  92 E14       29.50F FOG
6HR MIN TEMP:  35; 6HR MAX TEMP:  38; 6HR PCP:  0.13;

KALAMAZOO      CLOUDY    55  51  86 NE3       29.48F FOG
6HR MIN TEMP:  43; 6HR MAX TEMP:  57; 6HR PCP:  0.07;

STURGIS*       CLOUDY    63  56  79 S8        29.47F
6HR MIN TEMP:  48; 6HR MAX TEMP:  64;

THREE RIVERS*  CLOUDY    63  56  79 S9        29.47F
6HR MIN TEMP:  46; 6HR MAX TEMP:  63;


$$
OHZ001>008-015>018-024>025-241900-
NORTHWEST OHIO

CITY           SKY/WX    TMP DP  RH WIND       PRES   REMARKS
DEFIANCE       CLOUDY    68  54  60 SW21G32   29.52F
6HR MIN TEMP:  41; 6HR MAX TEMP:  69;

FINDLAY        MOSUNNY   75  54  47 S31G38    29.54F
6HR MIN TEMP:  56; 6HR MAX TEMP:  75;

TOLEDO EXPRESS PTSUNNY   70  56  61 S21G30    29.52F
6HR MIN TEMP:  41; 6HR MAX TEMP:  70;

TOLEDO METCALF MOSUNNY   73  56  54 SW22G35   29.54F
6HR MIN TEMP:  41; 6HR MAX TEMP:  73;

LIMA           MOSUNNY   70  55  59 S21G33    29.55F
6HR MIN TEMP:  56; 6HR MAX TEMP:  72;


$$
AND FOR LAKE MICHIGAN COASTAL AND OPEN LAKE BUOY OBSERVATIONS

STATION/POSITION TEMP    WIND        PRES    VSBY  WAVE
                 AIR SEA DIR/SP/G                  HT/PER
                 (F)     (DEG/KT/KT) (MB)    (MI)  (FT/S)
CALUMET HARBOR    38     330/ 12/ 16  997.4F
MICHIGAN CITY     36     220/  9/ 10   N/A
BURNS HARBOR      37     270/  5/  6  998.3F

$$
&&




USA.gov is the U.S. government's official web portal to all federal, state and local government web resources and services.